Location: Newark
(30.0333°N, 31.2167°E)
Time: 18:17:04
(UTC+00:00)

Courier 1B - Visible Passes

Search period start: 28 January 2020 00:00
Search period end: 07 February 2020 00:00
Orbit: 962 x 1209 km, 28.3° (Epoch: 27 January)

Date Brightness Start Highest point End Pass type
(mag) Time Alt. Az. Time Alt. Az. Time Alt. Az.
28 Jan 9.9 01:00:18 20° E 01:00:18 20° E 01:02:17 10° E visible
28 Jan 7.8 02:47:11 53° WSW 02:49:03 72° S 02:56:47 10° ESE visible
29 Jan 8.2 01:56:47 56° ESE 01:56:47 56° ESE 02:02:46 10° E visible
29 Jan 8.4 03:43:41 17° W 03:49:18 50° SSW 03:56:46 10° SE visible
30 Jan 9.7 01:06:24 22° E 01:06:24 22° E 01:08:43 10° E visible
30 Jan 8.0 02:53:18 44° WSW 02:55:25 58° SSW 03:02:57 10° ESE visible
31 Jan 8.2 02:02:57 55° SE 02:02:57 55° SE 02:09:03 10° ESE visible
31 Jan 8.8 03:49:50 14° W 03:55:32 35° SSW 04:02:22 10° SE visible
01 Feb 9.6 01:12:36 23° ESE 01:12:36 23° ESE 01:15:05 10° ESE visible
01 Feb 8.4 02:59:30 34° WSW 03:01:42 42° SSW 03:08:48 10° SE visible
02 Feb 8.4 02:09:12 45° SSE 02:09:12 45° SSE 02:15:06 10° SE visible
02 Feb 9.3 03:56:18 10° WSW 04:01:41 22° SSW 04:07:16 10° SSE visible
03 Feb 9.6 01:18:55 22° ESE 01:18:55 22° ESE 01:21:17 10° ESE visible
03 Feb 8.8 03:05:49 24° SW 03:07:55 28° SSW 03:14:09 10° SSE visible
04 Feb 8.8 02:15:34 32° S 02:15:34 32° S 02:20:45 10° SE visible
04 Feb 9.7 04:05:19 10° SW 04:07:51 12° SSW 04:10:24 10° S visible
04 Feb 9.4 17:41:41 10° S 17:43:38 14° SSE 17:43:38 14° SSE visible
05 Feb 9.7 01:25:20 18° SE 01:25:20 18° SE 01:27:11 10° SE visible
05 Feb 9.3 03:12:15 15° SW 03:14:06 17° SSW 03:18:29 10° S visible
05 Feb 9.5 16:50:34 10° SSE 16:51:40 10° SSE 16:52:45 10° SE visible
05 Feb 9.7 18:39:18 10° SW 18:40:22 15° SW 18:40:22 15° SW visible
06 Feb 9.3 02:22:03 20° S 02:22:03 20° S 02:25:43 10° SSE visible
06 Feb 8.9 17:46:08 10° SSW 17:50:12 25° S 17:50:12 25° S visible
